Lionhead Wind

Located on Lionhead Ridge near West Yellowstone. Use the nearest SNOTEL station for snow depth data: Madison Plateau. The data on this page is also available to view at dataGarrison.com.

Elevation
8775ft
Jump to table bottom
Date Time Temperature
deg F
RH, % Wind Speed Wind Gust Wind Direction
01/23/22 01:08 22.2 96 4 13 N - 338
01/23/22 00:08 22.9 96 3 9 NW - 309
01/22/22 23:08 23.8 97 4 10 NW - 299
01/22/22 22:08 22.8 97 3 7 W - 284
01/22/22 21:08 23.6 97 6 14 N - 338
01/22/22 20:08 21.9 97 3 7 N - 345
01/22/22 19:08 22.5 97 4 7 NW - 334
01/22/22 18:08 19.7 97 2 5 N - 10
01/22/22 17:08 22.0 96 2 6 W - 291
01/22/22 16:08 26.0 96 3 7 NW - 336
01/22/22 15:08 28.8 96 3 7 NW - 300
01/22/22 14:08 30.4 96 2 8 NW - 320
01/22/22 13:08 24.9 96 5 14 N - 354
01/22/22 12:08 22.4 96 7 16 N - 352
01/22/22 11:08 19.2 95 7 15 N - 341
01/22/22 10:08 16.1 95 7 14 N - 354
01/22/22 09:08 18.6 95 4 8 N - 348
01/22/22 08:08 14.1 95 6 10 N - 351
01/22/22 07:08 13.0 95 6 13 N - 347
01/22/22 06:08 11.2 95 6 11 N - 345
01/22/22 05:08 10.4 94 4 12 N - 340
01/22/22 04:08 10.4 94 2 9 NW - 329
01/22/22 03:08 9.2 94 3 18 NW - 327
01/22/22 02:08 10.7 94 3 11 N - 338
01/22/22 01:08 9.6 93 3 8 W - 285
01/22/22 00:08 8.2 94 2 6 NW - 319
01/21/22 23:08 10.2 94 4 9 NW - 296
01/21/22 22:08 11.0 95 10 17 W - 258
01/21/22 21:08 11.5 95 8 14 W - 257
01/21/22 20:08 11.7 95 7 13 W - 261
01/21/22 19:08 11.9 95 6 13 W - 292
01/21/22 18:08 12.3 95 7 14 W - 289
01/21/22 17:08 13.5 95 8 14 W - 279
01/21/22 16:08 16.0 95 4 25 NW - 324
01/21/22 15:08 15.6 95 5 28 N - 338
01/21/22 14:08 22.5 95 2 9 NW - 329
01/21/22 13:08 27.0 95 1 4 NW - 336
01/21/22 12:08 22.7 94 1 6 N - 345
01/21/22 11:08 21.5 94 3 10 NW - 331
01/21/22 10:08 16.1 94 5 10 N - 355
01/21/22 09:08 16.0 95 5 10 N - 344
01/21/22 08:08 14.2 95 6 10 N - 350
01/21/22 07:08 14.3 95 4 19 NW - 310
01/21/22 06:08 14.2 96 4 19 NW - 305
01/21/22 05:08 15.6 96 4 17 NW - 300
01/21/22 04:08 15.4 95 4 18 NW - 299
01/21/22 03:08 13.9 94 7 19 W - 289
01/21/22 02:08 8.3 94 13 20 SW - 243
01/21/22 01:08 8.0 94 8 16 SW - 237
01/21/22 00:08 11.0 95 9 22 W - 264